Simultaneous Nadir Overpasses (SNOs) Predictions

Prediction of SNOs between FY3D and AQUA Satellite Orbit:

Table of predicted SNOs for the next 14.0 days since TLE Epoch: 4/30/2022
Index Date (FY3D) Time (FY3D) Lat,Lon (FY3D) SZA (FY3D ) Date (AQUA) Time (AQUA) Lat,Lon (AQUA) SZA (AQUA ) Distance(km) Time Diff (sec)
1 04/30/2022 16:09:16 -74.92, 109.72 119.95 04/30/2022 16:09:34 -74.91, 109.73 119.95 0.45 18
2 04/30/2022 16:59:27 73.20, -78.64 58.22 04/30/2022 16:58:28 73.21, -78.70 58.23 2.17 59
3 05/03/2022 06:45:58 -75.91,-112.43 119.62 05/03/2022 06:47:10 -75.90,-112.34 119.65 2.57 72
4 05/03/2022 07:36:14 74.50, 59.12 58.81 05/03/2022 07:36:09 74.50, 59.10 58.81 0.67 5
5 05/05/2022 22:12:50 75.29,-162.20 58.92 05/05/2022 22:13:39 75.30,-162.27 58.92 2.35 49
6 05/05/2022 23:03:14 -74.25, 8.01 122.22 05/05/2022 23:02:44 -74.25, 8.05 122.23 1.23 30
7 05/08/2022 13:39:54 -75.19, 146.36 121.93 05/08/2022 13:40:17 -75.18, 146.40 121.94 1.31 23
8 05/08/2022 14:30:07 73.60, -42.13 56.36 05/08/2022 14:29:13 73.61, -42.16 56.37 1.21 54
9 05/11/2022 04:17:40 -78.82, -88.66 118.13 05/11/2022 04:18:54 -78.98, -88.00 118.05 23.27 74
10 05/11/2022 05:06:52 74.81, 95.71 56.96 05/11/2022 05:06:50 74.80, 95.73 56.96 0.79 2
11 05/11/2022 05:52:17 -57.62, -75.12 139.10 05/11/2022 05:51:04 -57.42, -76.32 139.56 74.62 73
12 05/13/2022 19:43:28 75.56,-125.59 57.14 05/13/2022 19:44:18 75.56,-125.61 57.13 0.47 50



Historial Predications of SNOs between FY3D and AQUA
